Time,TemperatureF,DewpointF,PressureIn,WindDirection,WindDirectionDegrees,WindSpeedMPH,WindSpeedGustMPH,Humidity,HourlyPrecipIn,Conditions,Clouds,dailyrainin,SoftwareType,DateUTC
2013-11-08 00:00:00,32.0,2.6,29.82,ENE,67,0.0,0.0,28,0.00,,,0.00,Weather View 32 v70,2013-11-08 05:00:00,
2013-11-08 00:01:00,32.0,2.6,29.82,ENE,67,0.0,0.0,28,0.00,,,0.00,Weather View 32 v70,2013-11-08 05:01:00,
2013-11-08 00:02:00,32.0,0.1,29.82,ENE,67,0.0,0.0,25,0.00,,,0.00,Weather View 32 v70,2013-11-08 05:02:00,
2013-11-08 00:07:00,32.0,-3.6,29.82,ENE,67,0.0,0.0,21,0.00,,,0.00,Weather View 32 v70,2013-11-08 05:07:00,
2013-11-08 00:12:00,32.0,-5.6,29.82,ENE,67,0.0,0.0,19,0.00,,,0.00,Weather View 32 v70,2013-11-08 05:12:00,
2013-11-08 00:17:00,32.0,-7.9,29.82,ENE,67,0.0,0.0,17,0.00,,,0.00,Weather View 32 v70,2013-11-08 05:17:00,
2013-11-08 00:22:00,31.0,-10.0,29.82,ENE,67,0.0,0.0,16,0.00,,,0.00,Weather View 32 v70,2013-11-08 05:22:00,
2013-11-08 00:27:00,31.0,-10.0,29.82,ENE,67,0.0,0.0,16,0.00,,,0.00,Weather View 32 v70,2013-11-08 05:27:00,
2013-11-08 00:32:00,31.0,-26.0,29.82,ENE,67,0.0,0.0,7,0.00,,,0.00,Weather View 32 v70,2013-11-08 05:32:00,
2013-11-08 00:37:00,31.0,-58.9,29.81,ENE,67,0.0,2.0,1,0.00,,,0.00,Weather View 32 v70,2013-11-08 05:37:00,
2013-11-08 00:42:00,32.0,-58.3,29.81,ENE,67,0.0,2.0,1,0.00,,,0.00,Weather View 32 v70,2013-11-08 05:42:00,
2013-11-08 00:47:00,31.0,-58.9,29.82,ENE,67,0.0,2.0,1,0.00,,,0.00,Weather View 32 v70,2013-11-08 05:47:00,
2013-11-08 00:52:00,31.0,-58.9,29.82,ENE,67,0.0,2.0,1,0.00,,,0.00,Weather View 32 v70,2013-11-08 05:52:00,
2013-11-08 00:57:00,31.0,-58.9,29.82,ENE,67,0.0,2.0,1,0.00,,,0.00,Weather View 32 v70,2013-11-08 05:57:00,
2013-11-08 01:02:00,31.0,-58.9,29.82,ENE,67,0.0,2.0,1,0.00,,,0.00,Weather View 32 v70,2013-11-08 06:02:00,
2013-11-08 01:07:00,31.0,-58.9,29.83,ENE,67,2.0,2.0,1,0.00,,,0.00,Weather View 32 v70,2013-11-08 06:07:00,
2013-11-08 01:12:00,31.0,-58.9,29.83,WNW,292,0.0,3.0,1,0.00,,,0.00,Weather View 32 v70,2013-11-08 06:12:00,
2013-11-08 01:17:00,31.0,-58.9,29.82,WNW,292,0.0,3.0,1,0.00,,,0.00,Weather View 32 v70,2013-11-08 06:17:00,
2013-11-08 01:22:00,31.0,-58.9,29.83,NW,315,0.0,3.0,1,0.00,,,0.00,Weather View 32 v70,2013-11-08 06:22:00,
2013-11-08 01:27:00,32.0,-40.4,29.83,NW,315,0.0,3.0,3,0.00,,,0.00,Weather View 32 v70,2013-11-08 06:27:00,
2013-11-08 01:32:00,32.0,-35.4,29.83,NW,315,0.0,3.0,4,0.00,,,0.00,Weather View 32 v70,2013-11-08 06:32:00,
2013-11-08 01:37:00,33.0,12.4,29.84,WNW,292,0.0,3.0,42,0.00,,,0.00,Weather View 32 v70,2013-11-08 06:37:00,
2013-11-08 01:42:00,34.0,23.8,29.84,West,270,0.0,7.0,66,0.00,,,0.00,Weather View 32 v70,2013-11-08 06:42:00,
2013-11-08 01:47:00,35.0,23.7,29.84,NNW,337,0.0,7.0,63,0.00,,,0.00,Weather View 32 v70,2013-11-08 06:47:00,
2013-11-08 01:52:00,34.0,23.8,29.84,NNW,337,0.0,7.0,66,0.00,,,0.00,Weather View 32 v70,2013-11-08 06:52:00,
2013-11-08 01:57:00,34.0,23.1,29.84,NNW,337,0.0,7.0,64,0.00,,,0.00,Weather View 32 v70,2013-11-08 06:57:00,
2013-11-08 02:02:00,33.0,22.1,29.84,NNW,337,0.0,7.0,64,0.00,,,0.00,Weather View 32 v70,2013-11-08 07:02:00,
2013-11-08 02:07:00,33.0,22.5,29.84,WSW,247,1.0,7.0,65,0.00,,,0.00,Weather View 32 v70,2013-11-08 07:07:00,
2013-11-08 02:12:00,33.0,21.4,29.83,WSW,247,0.0,7.0,62,0.00,,,0.00,Weather View 32 v70,2013-11-08 07:12:00,
2013-11-08 02:17:00,33.0,19.0,29.83,WSW,247,0.0,7.0,56,0.00,,,0.00,Weather View 32 v70,2013-11-08 07:17:00,
2013-11-08 02:22:00,33.0,20.2,29.83,WSW,247,0.0,7.0,59,0.00,,,0.00,Weather View 32 v70,2013-11-08 07:22:00,
2013-11-08 02:27:00,32.0,18.5,29.83,WSW,247,0.0,7.0,57,0.00,,,0.00,Weather View 32 v70,2013-11-08 07:27:00,
2013-11-08 02:32:00,32.0,18.1,29.83,WSW,247,0.0,7.0,56,0.00,,,0.00,Weather View 32 v70,2013-11-08 07:32:00,
2013-11-08 02:37:00,31.0,15.4,29.83,WSW,247,0.0,7.0,52,0.00,,,0.00,Weather View 32 v70,2013-11-08 07:37:00,
2013-11-08 02:42:00,31.0,12.6,29.83,WSW,247,0.0,4.0,46,0.00,,,0.00,Weather View 32 v70,2013-11-08 07:42:00,
2013-11-08 02:47:00,31.0,6.5,29.84,WSW,247,0.0,1.0,35,0.00,,,0.00,Weather View 32 v70,2013-11-08 07:47:00,
2013-11-08 02:52:00,31.0,4.6,29.84,WSW,247,0.0,1.0,32,0.00,,,0.00,Weather View 32 v70,2013-11-08 07:52:00,
2013-11-08 02:57:00,31.0,-0.7,29.84,WSW,247,0.0,1.0,25,0.00,,,0.00,Weather View 32 v70,2013-11-08 07:57:00,
2013-11-08 03:02:00,30.0,-12.1,29.84,WSW,247,0.0,1.0,15,0.00,,,0.00,Weather View 32 v70,2013-11-08 08:02:00,
2013-11-08 03:07:00,31.0,0.9,29.84,NE,45,3.0,6.0,27,0.00,,,0.00,Weather View 32 v70,2013-11-08 08:07:00,
2013-11-08 03:12:00,31.0,6.5,29.84,NE,45,0.0,6.0,35,0.00,,,0.00,Weather View 32 v70,2013-11-08 08:12:00,
2013-11-08 03:17:00,31.0,8.3,29.84,NE,45,0.0,6.0,38,0.00,,,0.00,Weather View 32 v70,2013-11-08 08:17:00,
2013-11-08 03:22:00,30.0,9.7,29.84,NE,45,0.0,6.0,42,0.00,,,0.00,Weather View 32 v70,2013-11-08 08:22:00,
2013-11-08 03:27:00,30.0,9.7,29.85,NE,45,0.0,6.0,42,0.00,,,0.00,Weather View 32 v70,2013-11-08 08:27:00,
2013-11-08 03:32:00,30.0,10.2,29.85,NE,45,0.0,6.0,43,0.00,,,0.00,Weather View 32 v70,2013-11-08 08:32:00,
2013-11-08 03:37:00,29.0,9.3,29.85,NE,45,0.0,6.0,43,0.00,,,0.00,Weather View 32 v70,2013-11-08 08:37:00,
2013-11-08 03:42:00,29.0,9.8,29.85,NE,45,0.0,6.0,44,0.00,,,0.00,Weather View 32 v70,2013-11-08 08:42:00,
2013-11-08 03:47:00,29.0,8.8,29.85,NE,45,0.0,6.0,42,0.00,,,0.00,Weather View 32 v70,2013-11-08 08:47:00,
2013-11-08 03:52:00,28.0,6.8,29.85,NE,45,0.0,6.0,40,0.00,,,0.00,Weather View 32 v70,2013-11-08 08:52:00,
2013-11-08 03:57:00,28.0,5.7,29.85,NE,45,0.0,6.0,38,0.00,,,0.00,Weather View 32 v70,2013-11-08 08:57:00,
2013-11-08 04:02:00,28.0,-0.2,29.85,NE,45,0.0,6.0,29,0.00,,,0.00,Weather View 32 v70,2013-11-08 09:02:00,
2013-11-08 04:07:00,28.0,-6.9,29.85,NE,45,0.0,4.0,21,0.00,,,0.00,Weather View 32 v70,2013-11-08 09:07:00,
2013-11-08 04:12:00,28.0,-6.9,29.86,NE,45,0.0,2.0,21,0.00,,,0.00,Weather View 32 v70,2013-11-08 09:12:00,
2013-11-08 04:17:00,28.0,-4.2,29.86,NE,45,0.0,2.0,24,0.00,,,0.00,Weather View 32 v70,2013-11-08 09:17:00,
2013-11-08 04:22:00,28.0,-2.5,29.86,NE,45,0.0,2.0,26,0.00,,,0.00,Weather View 32 v70,2013-11-08 09:22:00,
2013-11-08 04:27:00,28.0,-2.5,29.86,NE,45,0.0,0.0,26,0.00,,,0.00,Weather View 32 v70,2013-11-08 09:27:00,
2013-11-08 04:32:00,27.0,-3.3,29.86,NE,45,0.0,0.0,26,0.00,,,0.00,Weather View 32 v70,2013-11-08 09:32:00,
2013-11-08 04:37:00,27.0,-2.6,29.86,NE,45,0.0,0.0,27,0.00,,,0.00,Weather View 32 v70,2013-11-08 09:37:00,
2013-11-08 04:42:00,27.0,-5.0,29.86,NE,45,0.0,0.0,24,0.00,,,0.00,Weather View 32 v70,2013-11-08 09:42:00,
2013-11-08 04:47:00,27.0,-6.8,29.86,NE,45,0.0,0.0,22,0.00,,,0.00,Weather View 32 v70,2013-11-08 09:47:00,
2013-11-08 04:52:00,27.0,-5.9,29.86,NE,45,0.0,0.0,23,0.00,,,0.00,Weather View 32 v70,2013-11-08 09:52:00,
2013-11-08 04:57:00,27.0,-3.3,29.86,NE,45,0.0,0.0,26,0.00,,,0.00,Weather View 32 v70,2013-11-08 09:57:00,
2013-11-08 05:02:00,27.0,-0.3,29.86,NE,45,0.0,0.0,30,0.00,,,0.00,Weather View 32 v70,2013-11-08 10:02:00,
2013-11-08 05:07:00,27.0,1.7,29.87,NE,45,0.0,0.0,33,0.00,,,0.00,Weather View 32 v70,2013-11-08 10:07:00,
2013-11-08 05:12:00,27.0,2.3,29.87,NE,45,0.0,0.0,34,0.00,,,0.00,Weather View 32 v70,2013-11-08 10:12:00,
2013-11-08 05:17:00,26.0,0.8,29.87,NE,45,0.0,0.0,33,0.00,,,0.00,Weather View 32 v70,2013-11-08 10:17:00,
2013-11-08 05:23:00,26.0,0.8,29.87,NE,45,0.0,0.0,33,0.00,,,0.00,Weather View 32 v70,2013-11-08 10:23:00,
2013-11-08 05:28:00,26.0,-2.7,29.87,NE,45,0.0,0.0,28,0.00,,,0.00,Weather View 32 v70,2013-11-08 10:28:00,
2013-11-08 05:33:00,26.0,-4.2,29.87,NE,45,0.0,0.0,26,0.00,,,0.00,Weather View 32 v70,2013-11-08 10:33:00,
2013-11-08 05:38:00,26.0,-8.6,29.87,NE,45,0.0,0.0,21,0.00,,,0.00,Weather View 32 v70,2013-11-08 10:38:00,
2013-11-08 05:43:00,26.0,-5.9,29.87,NE,45,0.0,0.0,24,0.00,,,0.00,Weather View 32 v70,2013-11-08 10:43:00,
2013-11-08 05:48:00,26.0,-3.4,29.87,NE,45,0.0,0.0,27,0.00,,,0.00,Weather View 32 v70,2013-11-08 10:48:00,
2013-11-08 05:53:00,26.0,-2.7,29.88,NE,45,0.0,0.0,28,0.00,,,0.00,Weather View 32 v70,2013-11-08 10:53:00,
2013-11-08 05:58:00,26.0,-4.2,29.88,NE,45,0.0,0.0,26,0.00,,,0.00,Weather View 32 v70,2013-11-08 10:58:00,
2013-11-08 06:03:00,25.0,-5.9,29.88,NE,45,0.0,0.0,25,0.00,,,0.00,Weather View 32 v70,2013-11-08 11:03:00,
2013-11-08 06:08:00,25.0,-9.4,29.88,NE,45,0.0,0.0,21,0.00,,,0.00,Weather View 32 v70,2013-11-08 11:08:00,
2013-11-08 06:13:00,25.0,-14.9,29.89,NE,45,0.0,0.0,16,0.00,,,0.00,Weather View 32 v70,2013-11-08 11:13:00,
2013-11-08 06:18:00,25.0,-12.5,29.89,NE,45,0.0,0.0,18,0.00,,,0.00,Weather View 32 v70,2013-11-08 11:18:00,
2013-11-08 06:23:00,25.0,-11.5,29.89,NE,45,0.0,0.0,19,0.00,,,0.00,Weather View 32 v70,2013-11-08 11:23:00,
2013-11-08 06:28:00,25.0,-11.5,29.90,NE,45,0.0,0.0,19,0.00,,,0.00,Weather View 32 v70,2013-11-08 11:28:00,
2013-11-08 06:33:00,25.0,-13.7,29.90,NE,45,0.0,0.0,17,0.00,,,0.00,Weather View 32 v70,2013-11-08 11:33:00,
2013-11-08 06:38:00,25.0,-14.9,29.90,NE,45,0.0,0.0,16,0.00,,,0.00,Weather View 32 v70,2013-11-08 11:38:00,
2013-11-08 06:43:00,25.0,-22.1,29.90,NE,45,0.0,0.0,11,0.00,,,0.00,Weather View 32 v70,2013-11-08 11:43:00,
2013-11-08 06:48:00,25.0,-25.9,29.90,NE,45,0.0,0.0,9,0.00,,,0.00,Weather View 32 v70,2013-11-08 11:48:00,
2013-11-08 06:53:00,25.0,-30.5,29.90,NE,45,0.0,0.0,7,0.00,,,0.00,Weather View 32 v70,2013-11-08 11:53:00,
2013-11-08 06:58:00,25.0,-33.3,29.91,NE,45,0.0,0.0,6,0.00,,,0.00,Weather View 32 v70,2013-11-08 11:58:00,
2013-11-08 07:03:00,26.0,-39.7,29.91,NE,45,0.0,0.0,4,0.00,,,0.00,Weather View 32 v70,2013-11-08 12:03:00,
2013-11-08 07:08:00,26.0,-62.1,29.91,NE,45,0.0,0.0,1,0.00,,,0.00,Weather View 32 v70,2013-11-08 12:08:00,
2013-11-08 07:13:00,26.0,-62.1,29.89,NE,45,0.0,0.0,1,0.00,,,0.00,Weather View 32 v70,2013-11-08 12:13:00,
2013-11-08 07:18:00,26.0,-62.1,29.90,NE,45,0.0,0.0,1,0.00,,,0.00,Weather View 32 v70,2013-11-08 12:18:00,
2013-11-08 07:23:00,27.0,-61.4,29.90,NE,45,0.0,0.0,1,0.00,,,0.00,Weather View 32 v70,2013-11-08 12:23:00,
2013-11-08 07:28:00,28.0,-60.8,29.90,NE,45,0.0,0.0,1,0.00,,,0.00,Weather View 32 v70,2013-11-08 12:28:00,
2013-11-08 07:33:00,29.0,-60.2,29.90,SSE,157,0.0,2.0,1,0.00,,,0.00,Weather View 32 v70,2013-11-08 12:33:00,
2013-11-08 07:38:00,31.0,-58.9,29.90,SW,225,0.0,2.0,1,0.00,,,0.00,Weather View 32 v70,2013-11-08 12:38:00,
2013-11-08 07:43:00,33.0,8.9,29.91,SW,225,1.0,2.0,36,0.00,,,0.00,Weather View 32 v70,2013-11-08 12:43:00,
2013-11-08 07:48:00,36.0,24.2,29.92,SSW,202,1.0,3.0,62,0.00,,,0.00,Weather View 32 v70,2013-11-08 12:48:00,
2013-11-08 07:53:00,37.0,28.1,29.93,SW,225,0.0,3.0,70,0.00,,,0.00,Weather View 32 v70,2013-11-08 12:53:00,
2013-11-08 07:58:00,38.0,30.1,29.93,SW,225,0.0,4.0,73,0.00,,,0.00,Weather View 32 v70,2013-11-08 12:58:00,
2013-11-08 08:03:00,39.0,31.1,29.93,WNW,292,0.0,4.0,73,0.00,,,0.00,Weather View 32 v70,2013-11-08 13:03:00,
2013-11-08 08:08:00,39.0,31.1,29.93,SW,225,0.0,4.0,73,0.00,,,0.00,Weather View 32 v70,2013-11-08 13:08:00,
2013-11-08 08:13:00,39.0,30.0,29.93,SW,225,0.0,4.0,70,0.00,,,0.00,Weather View 32 v70,2013-11-08 13:13:00,
2013-11-08 08:18:00,39.0,32.4,29.94,WNW,292,3.0,4.0,77,0.00,,,0.00,Weather View 32 v70,2013-11-08 13:18:00,
2013-11-08 08:23:00,40.0,32.7,29.93,SSE,157,0.0,5.0,75,0.00,,,0.00,Weather View 32 v70,2013-11-08 13:23:00,
2013-11-08 08:28:00,40.0,32.7,29.94,SE,135,1.0,5.0,75,0.00,,,0.00,Weather View 32 v70,2013-11-08 13:28:00,
2013-11-08 08:33:00,40.0,33.0,29.94,West,270,0.0,6.0,76,0.00,,,0.00,Weather View 32 v70,2013-11-08 13:33:00,
2013-11-08 08:38:00,41.0,34.3,29.94,WNW,292,2.0,6.0,77,0.00,,,0.00,Weather View 32 v70,2013-11-08 13:38:00,
2013-11-08 08:43:00,41.0,34.0,29.94,South,180,1.0,6.0,76,0.00,,,0.00,Weather View 32 v70,2013-11-08 13:43:00,
2013-11-08 08:48:00,41.0,33.7,29.94,WNW,292,2.0,6.0,75,0.00,,,0.00,Weather View 32 v70,2013-11-08 13:48:00,
2013-11-08 08:53:00,41.0,34.0,29.94,WNW,292,2.0,6.0,76,0.00,,,0.00,Weather View 32 v70,2013-11-08 13:53:00,
2013-11-08 08:58:00,41.0,33.7,29.94,SSE,157,1.0,6.0,75,0.00,,,0.00,Weather View 32 v70,2013-11-08 13:58:00,
2013-11-08 09:03:00,42.0,35.0,29.94,NW,315,0.0,6.0,76,0.00,,,0.00,Weather View 32 v70,2013-11-08 14:03:00,
2013-11-08 09:08:00,43.0,36.3,29.95,West,270,3.0,6.0,77,0.00,,,0.00,Weather View 32 v70,2013-11-08 14:08:00,
2013-11-08 09:13:00,43.0,35.9,29.94,WSW,247,3.0,7.0,76,0.00,,,0.00,Weather View 32 v70,2013-11-08 14:13:00,
2013-11-08 09:18:00,42.0,35.0,29.95,WNW,292,0.0,7.0,76,0.00,,,0.00,Weather View 32 v70,2013-11-08 14:18:00,
2013-11-08 09:23:00,43.0,36.3,29.94,WNW,292,4.0,7.0,77,0.00,,,0.00,Weather View 32 v70,2013-11-08 14:23:00,
2013-11-08 09:29:00,44.0,36.2,29.94,South,180,1.0,7.0,74,0.00,,,0.00,Weather View 32 v70,2013-11-08 14:29:00,
2013-11-08 09:34:00,45.0,37.9,29.95,SW,225,1.0,7.0,76,0.00,,,0.00,Weather View 32 v70,2013-11-08 14:34:00,
2013-11-08 09:39:00,45.0,37.9,29.95,WSW,247,2.0,9.0,76,0.00,,,0.00,Weather View 32 v70,2013-11-08 14:39:00,
2013-11-08 09:44:00,45.0,37.9,29.95,West,270,4.0,9.0,76,0.00,,,0.00,Weather View 32 v70,2013-11-08 14:44:00,
2013-11-08 09:49:00,45.0,38.2,29.95,West,270,5.0,9.0,77,0.00,,,0.00,Weather View 32 v70,2013-11-08 14:49:00,
2013-11-08 09:54:00,45.0,37.9,29.95,West,270,3.0,9.0,76,0.00,,,0.00,Weather View 32 v70,2013-11-08 14:54:00,
2013-11-08 09:59:00,45.0,37.9,29.95,WSW,247,5.0,12.0,76,0.01,,,0.01,Weather View 32 v70,2013-11-08 14:59:00,
2013-11-08 10:04:00,45.0,37.9,29.95,SW,225,2.0,12.0,76,0.01,,,0.01,Weather View 32 v70,2013-11-08 15:04:00,
2013-11-08 10:09:00,46.0,38.5,29.95,East,90,2.0,12.0,75,0.01,,,0.01,Weather View 32 v70,2013-11-08 15:09:00,
2013-11-08 10:14:00,47.0,39.5,29.95,West,270,3.0,12.0,75,0.01,,,0.01,Weather View 32 v70,2013-11-08 15:14:00,
2013-11-08 10:19:00,46.0,38.2,29.95,South,180,6.0,12.0,74,0.01,,,0.01,Weather View 32 v70,2013-11-08 15:19:00,
2013-11-08 10:24:00,46.0,38.2,29.95,SSE,157,2.0,12.0,74,0.01,,,0.01,Weather View 32 v70,2013-11-08 15:24:00,
2013-11-08 10:29:00,47.0,39.5,29.95,ENE,67,3.0,12.0,75,0.01,,,0.01,Weather View 32 v70,2013-11-08 15:29:00,
2013-11-08 10:34:00,47.0,39.8,29.95,WNW,292,3.0,12.0,76,0.01,,,0.01,Weather View 32 v70,2013-11-08 15:34:00,
2013-11-08 10:39:00,47.0,38.4,29.95,West,270,7.0,12.0,72,0.01,,,0.01,Weather View 32 v70,2013-11-08 15:39:00,
2013-11-08 10:44:00,47.0,38.1,29.95,West,270,9.0,12.0,71,0.01,,,0.01,Weather View 32 v70,2013-11-08 15:44:00,
2013-11-08 10:49:00,47.0,39.1,29.95,West,270,3.0,12.0,74,0.01,,,0.01,Weather View 32 v70,2013-11-08 15:49:00,
2013-11-08 10:54:00,47.0,38.8,29.94,WNW,292,7.0,12.0,73,0.01,,,0.01,Weather View 32 v70,2013-11-08 15:54:00,
2013-11-08 10:59:00,47.0,37.7,29.94,West,270,2.0,10.0,70,0.00,,,0.01,Weather View 32 v70,2013-11-08 15:59:00,
2013-11-08 11:04:00,47.0,36.2,29.94,West,270,5.0,11.0,66,0.00,,,0.01,Weather View 32 v70,2013-11-08 16:04:00,
2013-11-08 11:09:00,46.0,36.0,29.94,NE,45,7.0,11.0,68,0.00,,,0.01,Weather View 32 v70,2013-11-08 16:09:00,
2013-11-08 11:14:00,47.0,36.6,29.94,East,90,3.0,12.0,67,0.00,,,0.01,Weather View 32 v70,2013-11-08 16:14:00,
2013-11-08 11:19:00,48.0,37.5,29.94,NE,45,1.0,12.0,67,0.00,,,0.01,Weather View 32 v70,2013-11-08 16:19:00,
2013-11-08 11:24:00,50.0,37.5,29.93,WNW,292,5.0,12.0,62,0.00,,,0.01,Weather View 32 v70,2013-11-08 16:24:00,
2013-11-08 11:29:00,50.0,34.9,29.93,ESE,112,3.0,12.0,56,0.00,,,0.01,Weather View 32 v70,2013-11-08 16:29:00,
2013-11-08 11:34:00,49.0,35.3,29.94,East,90,6.0,12.0,59,0.00,,,0.01,Weather View 32 v70,2013-11-08 16:34:00,
2013-11-08 11:39:00,49.0,35.3,29.94,NNW,337,1.0,12.0,59,0.00,,,0.01,Weather View 32 v70,2013-11-08 16:39:00,
2013-11-08 11:44:00,49.0,35.7,29.93,West,270,3.0,12.0,60,0.00,,,0.01,Weather View 32 v70,2013-11-08 16:44:00,
2013-11-08 11:49:00,48.0,33.5,29.93,West,270,4.0,12.0,57,0.00,,,0.01,Weather View 32 v70,2013-11-08 16:49:00,
2013-11-08 11:54:00,47.0,33.0,29.93,NNE,22,2.0,12.0,58,0.00,,,0.01,Weather View 32 v70,2013-11-08 16:54:00,
2013-11-08 11:59:00,47.0,34.2,29.92,ENE,67,2.0,12.0,61,0.00,,,0.01,Weather View 32 v70,2013-11-08 16:59:00,
2013-11-08 12:04:00,48.0,33.9,29.92,East,90,4.0,12.0,58,0.00,,,0.01,Weather View 32 v70,2013-11-08 17:04:00,
2013-11-08 12:09:00,49.0,33.0,29.92,SSW,202,1.0,12.0,54,0.00,,,0.01,Weather View 32 v70,2013-11-08 17:09:00,
2013-11-08 12:14:00,50.0,31.6,29.92,NW,315,0.0,12.0,49,0.00,,,0.01,Weather View 32 v70,2013-11-08 17:14:00,
2013-11-08 12:19:00,51.0,32.0,29.92,WNW,292,2.0,12.0,48,0.00,,,0.01,Weather View 32 v70,2013-11-08 17:19:00,
2013-11-08 12:25:00,50.0,31.0,29.93,West,270,2.0,12.0,48,0.00,,,0.01,Weather View 32 v70,2013-11-08 17:25:00,
2013-11-08 12:30:00,51.0,32.0,29.92,WNW,292,2.0,12.0,48,0.00,,,0.01,Weather View 32 v70,2013-11-08 17:30:00,
2013-11-08 12:35:00,51.0,31.4,29.93,West,270,2.0,12.0,47,0.00,,,0.01,Weather View 32 v70,2013-11-08 17:35:00,
2013-11-08 12:40:00,51.0,30.9,29.92,SSW,202,3.0,12.0,46,0.00,,,0.01,Weather View 32 v70,2013-11-08 17:40:00,
2013-11-08 12:45:00,51.0,30.9,29.92,NNE,22,2.0,12.0,46,0.00,,,0.01,Weather View 32 v70,2013-11-08 17:45:00,
2013-11-08 12:50:00,50.0,31.6,29.92,South,180,2.0,12.0,49,0.00,,,0.01,Weather View 32 v70,2013-11-08 17:50:00,
2013-11-08 12:55:00,51.0,33.0,29.93,West,270,5.0,12.0,50,0.00,,,0.01,Weather View 32 v70,2013-11-08 17:55:00,
2013-11-08 13:00:00,50.0,31.6,29.93,NW,315,2.0,12.0,49,0.00,,,0.01,Weather View 32 v70,2013-11-08 18:00:00,
2013-11-08 13:05:00,49.0,32.1,29.93,SE,135,0.0,12.0,52,0.00,,,0.01,Weather View 32 v70,2013-11-08 18:05:00,
2013-11-08 13:10:00,48.0,32.1,29.93,WNW,292,1.0,12.0,54,0.00,,,0.01,Weather View 32 v70,2013-11-08 18:10:00,
2013-11-08 13:15:00,47.0,33.0,29.93,ENE,67,4.0,12.0,58,0.00,,,0.01,Weather View 32 v70,2013-11-08 18:15:00,
2013-11-08 13:20:00,47.0,33.4,29.93,West,270,7.0,12.0,59,0.00,,,0.01,Weather View 32 v70,2013-11-08 18:20:00,
2013-11-08 13:25:00,47.0,33.8,29.93,West,270,5.0,12.0,60,0.00,,,0.01,Weather View 32 v70,2013-11-08 18:25:00,
2013-11-08 13:30:00,47.0,33.0,29.93,WSW,247,1.0,12.0,58,0.00,,,0.01,Weather View 32 v70,2013-11-08 18:30:00,
2013-11-08 13:35:00,47.0,35.4,29.93,NE,45,5.0,12.0,64,0.00,,,0.01,Weather View 32 v70,2013-11-08 18:35:00,
2013-11-08 13:40:00,46.0,34.5,29.92,ENE,67,2.0,12.0,64,0.00,,,0.01,Weather View 32 v70,2013-11-08 18:40:00,
2013-11-08 13:45:00,47.0,33.4,29.92,West,270,4.0,12.0,59,0.00,,,0.01,Weather View 32 v70,2013-11-08 18:45:00,
2013-11-08 13:50:00,46.0,32.0,29.91,WNW,292,2.0,12.0,58,0.00,,,0.01,Weather View 32 v70,2013-11-08 18:50:00,
2013-11-08 13:55:00,46.0,31.2,29.92,ENE,67,1.0,12.0,56,0.00,,,0.01,Weather View 32 v70,2013-11-08 18:55:00,
2013-11-08 14:00:00,46.0,30.7,29.92,WNW,292,6.0,12.0,55,0.00,,,0.01,Weather View 32 v70,2013-11-08 19:00:00,
2013-11-08 14:05:00,47.0,30.7,29.92,East,90,2.0,12.0,53,0.00,,,0.01,Weather View 32 v70,2013-11-08 19:05:00,
2013-11-08 14:10:00,47.0,30.3,29.92,SSW,202,3.0,12.0,52,0.00,,,0.01,Weather View 32 v70,2013-11-08 19:10:00,
2013-11-08 14:15:00,47.0,30.7,29.92,ENE,67,6.0,12.0,53,0.00,,,0.01,Weather View 32 v70,2013-11-08 19:15:00,
2013-11-08 14:20:00,46.0,29.8,29.93,ENE,67,9.0,12.0,53,0.00,,,0.01,Weather View 32 v70,2013-11-08 19:20:00,
2013-11-08 14:25:00,46.0,30.7,29.93,NW,315,3.0,12.0,55,0.00,,,0.01,Weather View 32 v70,2013-11-08 19:25:00,
2013-11-08 14:30:00,46.0,29.8,29.93,WNW,292,5.0,13.0,53,0.00,,,0.01,Weather View 32 v70,2013-11-08 19:30:00,
2013-11-08 14:35:00,46.0,29.8,29.93,West,270,0.0,13.0,53,0.00,,,0.01,Weather View 32 v70,2013-11-08 19:35:00,
2013-11-08 14:40:00,46.0,29.8,29.93,WSW,247,4.0,13.0,53,0.00,,,0.01,Weather View 32 v70,2013-11-08 19:40:00,
2013-11-08 14:45:00,46.0,29.8,29.93,NE,45,6.0,13.0,53,0.00,,,0.01,Weather View 32 v70,2013-11-08 19:45:00,
2013-11-08 14:50:00,46.0,29.8,29.93,ENE,67,6.0,13.0,53,0.00,,,0.01,Weather View 32 v70,2013-11-08 19:50:00,
2013-11-08 14:56:00,45.0,28.4,29.93,NE,45,2.0,13.0,52,0.00,,,0.01,Weather View 32 v70,2013-11-08 19:56:00,
2013-11-08 15:01:00,45.0,28.9,29.93,ENE,67,5.0,13.0,53,0.00,,,0.01,Weather View 32 v70,2013-11-08 20:01:00,
2013-11-08 15:06:00,45.0,28.9,29.94,NW,315,3.0,13.0,53,0.00,,,0.01,Weather View 32 v70,2013-11-08 20:06:00,
2013-11-08 15:11:00,45.0,30.7,29.94,ENE,67,5.0,15.0,57,0.00,,,0.01,Weather View 32 v70,2013-11-08 20:11:00,
2013-11-08 15:16:00,45.0,31.9,29.94,West,270,3.0,15.0,60,0.00,,,0.01,Weather View 32 v70,2013-11-08 20:16:00,
2013-11-08 15:21:00,44.0,31.0,29.94,North,360,3.0,15.0,60,0.00,,,0.01,Weather View 32 v70,2013-11-08 20:21:00,
2013-11-08 15:26:00,44.0,28.8,29.95,WNW,292,0.0,15.0,55,0.00,,,0.01,Weather View 32 v70,2013-11-08 20:26:00,
2013-11-08 15:31:00,44.0,29.7,29.95,ESE,112,2.0,15.0,57,0.00,,,0.01,Weather View 32 v70,2013-11-08 20:31:00,
2013-11-08 15:36:00,44.0,27.9,29.95,NW,315,3.0,15.0,53,0.00,,,0.01,Weather View 32 v70,2013-11-08 20:36:00,
2013-11-08 15:41:00,44.0,28.4,29.95,SW,225,2.0,15.0,54,0.00,,,0.01,Weather View 32 v70,2013-11-08 20:41:00,
2013-11-08 15:46:00,43.0,27.0,29.95,West,270,3.0,15.0,53,0.00,,,0.01,Weather View 32 v70,2013-11-08 20:46:00,
2013-11-08 15:51:00,43.0,27.9,29.95,WNW,292,1.0,15.0,55,0.00,,,0.01,Weather View 32 v70,2013-11-08 20:51:00,
2013-11-08 15:56:00,43.0,27.0,29.95,ESE,112,2.0,15.0,53,0.00,,,0.01,Weather View 32 v70,2013-11-08 20:56:00,
2013-11-08 16:01:00,43.0,27.0,29.96,WSW,247,3.0,15.0,53,0.00,,,0.01,Weather View 32 v70,2013-11-08 21:01:00,
2013-11-08 16:06:00,43.0,27.0,29.96,NE,45,1.0,15.0,53,0.00,,,0.01,Weather View 32 v70,2013-11-08 21:06:00,
2013-11-08 16:11:00,43.0,26.1,29.96,SSE,157,1.0,12.0,51,0.00,,,0.01,Weather View 32 v70,2013-11-08 21:11:00,
2013-11-08 16:16:00,43.0,25.6,29.96,WSW,247,1.0,12.0,50,0.00,,,0.01,Weather View 32 v70,2013-11-08 21:16:00,
2013-11-08 16:21:00,43.0,26.6,29.96,East,90,7.0,12.0,52,0.00,,,0.01,Weather View 32 v70,2013-11-08 21:21:00,
2013-11-08 16:26:00,43.0,26.6,29.97,West,270,0.0,13.0,52,0.00,,,0.01,Weather View 32 v70,2013-11-08 21:26:00,
2013-11-08 16:31:00,43.0,26.6,29.97,NNE,22,0.0,13.0,52,0.00,,,0.01,Weather View 32 v70,2013-11-08 21:31:00,
2013-11-08 16:36:00,42.0,26.5,29.97,NNE,22,0.0,13.0,54,0.00,,,0.01,Weather View 32 v70,2013-11-08 21:36:00,
2013-11-08 16:41:00,42.0,27.0,29.97,West,270,4.0,13.0,55,0.00,,,0.01,Weather View 32 v70,2013-11-08 21:41:00,
2013-11-08 16:46:00,42.0,27.9,29.97,NNE,22,3.0,13.0,57,0.00,,,0.01,Weather View 32 v70,2013-11-08 21:46:00,
2013-11-08 16:51:00,42.0,27.9,29.97,NE,45,0.0,13.0,57,0.00,,,0.01,Weather View 32 v70,2013-11-08 21:51:00,
2013-11-08 16:56:00,41.0,27.3,29.98,West,270,6.0,13.0,58,0.00,,,0.01,Weather View 32 v70,2013-11-08 21:56:00,
2013-11-08 17:01:00,41.0,27.8,29.98,NE,45,8.0,13.0,59,0.00,,,0.01,Weather View 32 v70,2013-11-08 22:01:00,
2013-11-08 17:06:00,41.0,28.2,29.99,WNW,292,1.0,13.0,60,0.00,,,0.01,Weather View 32 v70,2013-11-08 22:06:00,
2013-11-08 17:11:00,41.0,28.6,29.99,WSW,247,1.0,13.0,61,0.00,,,0.01,Weather View 32 v70,2013-11-08 22:11:00,
2013-11-08 17:16:00,41.0,29.4,29.99,North,360,1.0,13.0,63,0.00,,,0.01,Weather View 32 v70,2013-11-08 22:16:00,
2013-11-08 17:21:00,41.0,29.0,29.99,WNW,292,6.0,13.0,62,0.00,,,0.01,Weather View 32 v70,2013-11-08 22:21:00,
2013-11-08 17:26:00,41.0,29.7,30.00,ENE,67,0.0,13.0,64,0.00,,,0.01,Weather View 32 v70,2013-11-08 22:26:00,
2013-11-08 17:31:00,41.0,29.7,30.00,East,90,3.0,13.0,64,0.00,,,0.01,Weather View 32 v70,2013-11-08 22:31:00,
2013-11-08 17:36:00,41.0,30.5,30.00,NE,45,0.0,13.0,66,0.00,,,0.01,Weather View 32 v70,2013-11-08 22:36:00,
2013-11-08 17:41:00,41.0,30.5,30.01,ENE,67,3.0,13.0,66,0.00,,,0.01,Weather View 32 v70,2013-11-08 22:41:00,
2013-11-08 17:46:00,40.0,30.3,30.01,West,270,3.0,12.0,68,0.00,,,0.01,Weather View 32 v70,2013-11-08 22:46:00,
2013-11-08 17:51:00,40.0,29.2,30.01,NNW,337,0.0,10.0,65,0.00,,,0.01,Weather View 32 v70,2013-11-08 22:51:00,
2013-11-08 17:57:00,40.0,28.8,30.01,ENE,67,2.0,10.0,64,0.00,,,0.01,Weather View 32 v70,2013-11-08 22:57:00,
2013-11-08 18:02:00,40.0,29.2,30.02,West,270,1.0,9.0,65,0.00,,,0.01,Weather View 32 v70,2013-11-08 23:02:00,
2013-11-08 18:07:00,40.0,28.4,30.02,ENE,67,6.0,9.0,63,0.00,,,0.01,Weather View 32 v70,2013-11-08 23:07:00,
2013-11-08 18:12:00,40.0,29.2,30.02,East,90,0.0,9.0,65,0.00,,,0.01,Weather View 32 v70,2013-11-08 23:12:00,
2013-11-08 18:17:00,39.0,27.8,30.02,NW,315,3.0,9.0,64,0.00,,,0.01,Weather View 32 v70,2013-11-08 23:17:00,
2013-11-08 18:22:00,39.0,26.3,30.03,ENE,67,2.0,15.0,60,0.00,,,0.01,Weather View 32 v70,2013-11-08 23:22:00,
2013-11-08 18:27:00,39.0,25.9,30.03,NE,45,0.0,15.0,59,0.00,,,0.01,Weather View 32 v70,2013-11-08 23:27:00,
2013-11-08 18:32:00,39.0,25.0,30.03,West,270,0.0,15.0,57,0.00,,,0.01,Weather View 32 v70,2013-11-08 23:32:00,
2013-11-08 18:37:00,39.0,25.9,30.03,East,90,6.0,15.0,59,0.00,,,0.01,Weather View 32 v70,2013-11-08 23:37:00,
2013-11-08 18:42:00,39.0,25.0,30.03,NW,315,1.0,15.0,57,0.00,,,0.01,Weather View 32 v70,2013-11-08 23:42:00,
2013-11-08 18:47:00,38.0,23.7,30.03,WNW,292,2.0,15.0,56,0.00,,,0.01,Weather View 32 v70,2013-11-08 23:47:00,
2013-11-08 18:52:00,38.0,23.7,30.03,West,270,4.0,15.0,56,0.00,,,0.01,Weather View 32 v70,2013-11-08 23:52:00,
2013-11-08 18:57:00,38.0,23.7,30.03,East,90,2.0,15.0,56,0.00,,,0.01,Weather View 32 v70,2013-11-08 23:57:00,
2013-11-08 19:02:00,38.0,24.1,30.04,West,270,6.0,15.0,57,0.00,,,0.01,Weather View 32 v70,2013-11-09 00:02:00,
2013-11-08 19:07:00,38.0,24.1,30.04,WNW,292,2.0,15.0,57,0.00,,,0.01,Weather View 32 v70,2013-11-09 00:07:00,
2013-11-08 19:12:00,37.0,23.6,30.03,ENE,67,0.0,15.0,58,0.00,,,0.01,Weather View 32 v70,2013-11-09 00:12:00,
2013-11-08 19:17:00,37.0,23.6,30.04,NE,45,1.0,15.0,58,0.00,,,0.01,Weather View 32 v70,2013-11-09 00:17:00,
2013-11-08 19:22:00,37.0,24.0,30.04,NE,45,0.0,11.0,59,0.00,,,0.01,Weather View 32 v70,2013-11-09 00:22:00,
2013-11-08 19:27:00,37.0,23.6,30.05,NE,45,2.0,9.0,58,0.00,,,0.01,Weather View 32 v70,2013-11-09 00:27:00,
2013-11-08 19:32:00,37.0,23.6,30.05,West,270,4.0,9.0,58,0.00,,,0.01,Weather View 32 v70,2013-11-09 00:32:00,
2013-11-08 19:37:00,37.0,24.0,30.05,NE,45,4.0,9.0,59,0.00,,,0.01,Weather View 32 v70,2013-11-09 00:37:00,
2013-11-08 19:42:00,37.0,24.0,30.05,NE,45,5.0,9.0,59,0.00,,,0.01,Weather View 32 v70,2013-11-09 00:42:00,
2013-11-08 19:47:00,37.0,24.0,30.05,West,270,3.0,9.0,59,0.00,,,0.01,Weather View 32 v70,2013-11-09 00:47:00,
2013-11-08 19:52:00,37.0,24.8,30.06,East,90,4.0,9.0,61,0.00,,,0.01,Weather View 32 v70,2013-11-09 00:52:00,
2013-11-08 19:57:00,37.0,24.0,30.06,NE,45,0.0,7.0,59,0.00,,,0.01,Weather View 32 v70,2013-11-09 00:57:00,
2013-11-08 20:02:00,37.0,24.8,30.06,ENE,67,0.0,7.0,61,0.00,,,0.01,Weather View 32 v70,2013-11-09 01:02:00,
2013-11-08 20:07:00,36.0,23.0,30.06,NW,315,0.0,7.0,59,0.00,,,0.01,Weather View 32 v70,2013-11-09 01:07:00,
2013-11-08 20:12:00,37.0,23.6,30.06,ENE,67,0.0,7.0,58,0.00,,,0.01,Weather View 32 v70,2013-11-09 01:12:00,
2013-11-08 20:17:00,37.0,24.0,30.06,ENE,67,0.0,7.0,59,0.00,,,0.01,Weather View 32 v70,2013-11-09 01:17:00,
2013-11-08 20:22:00,36.0,23.4,30.06,ENE,67,0.0,7.0,60,0.00,,,0.01,Weather View 32 v70,2013-11-09 01:22:00,
2013-11-08 20:28:00,36.0,23.8,30.06,WNW,292,0.0,7.0,61,0.00,,,0.01,Weather View 32 v70,2013-11-09 01:28:00,
2013-11-08 20:33:00,36.0,23.8,30.06,WNW,292,1.0,7.0,61,0.00,,,0.01,Weather View 32 v70,2013-11-09 01:33:00,
2013-11-08 20:38:00,35.0,24.4,30.06,SSE,157,0.0,7.0,65,0.00,,,0.01,Weather View 32 v70,2013-11-09 01:38:00,
2013-11-08 20:43:00,35.0,24.4,30.06,SSE,157,0.0,7.0,65,0.00,,,0.01,Weather View 32 v70,2013-11-09 01:43:00,
2013-11-08 20:48:00,34.0,23.8,30.06,SSE,157,0.0,7.0,66,0.00,,,0.01,Weather View 32 v70,2013-11-09 01:48:00,
2013-11-08 20:53:00,34.0,24.5,30.06,SSE,157,0.0,7.0,68,0.00,,,0.01,Weather View 32 v70,2013-11-09 01:53:00,
2013-11-08 20:58:00,33.0,25.0,30.07,SSE,157,0.0,7.0,72,0.00,,,0.01,Weather View 32 v70,2013-11-09 01:58:00,
2013-11-08 21:03:00,33.0,25.6,30.06,SSE,157,0.0,7.0,74,0.00,,,0.01,Weather View 32 v70,2013-11-09 02:03:00,
2013-11-08 21:08:00,33.0,25.9,30.06,SSE,157,0.0,7.0,75,0.00,,,0.01,Weather View 32 v70,2013-11-09 02:08:00,
2013-11-08 21:13:00,32.0,25.3,30.06,SSE,157,0.0,6.0,76,0.00,,,0.01,Weather View 32 v70,2013-11-09 02:13:00,
2013-11-08 21:18:00,32.0,25.9,30.07,SSE,157,0.0,6.0,78,0.00,,,0.01,Weather View 32 v70,2013-11-09 02:18:00,
2013-11-08 21:23:00,32.0,25.9,30.07,SSE,157,0.0,6.0,78,0.00,,,0.01,Weather View 32 v70,2013-11-09 02:23:00,
2013-11-08 21:28:00,32.0,26.5,30.07,SSE,157,0.0,4.0,80,0.00,,,0.01,Weather View 32 v70,2013-11-09 02:28:00,
2013-11-08 21:33:00,31.0,25.9,30.07,SSE,157,0.0,4.0,81,0.00,,,0.01,Weather View 32 v70,2013-11-09 02:33:00,
2013-11-08 21:38:00,31.0,26.1,30.07,SSE,157,0.0,1.0,82,0.00,,,0.01,Weather View 32 v70,2013-11-09 02:38:00,
2013-11-08 21:43:00,31.0,26.4,30.07,SSE,157,0.0,1.0,83,0.00,,,0.01,Weather View 32 v70,2013-11-09 02:43:00,
2013-11-08 21:48:00,30.0,25.8,30.07,SSE,157,0.0,1.0,84,0.00,,,0.01,Weather View 32 v70,2013-11-09 02:48:00,
2013-11-08 21:53:00,30.0,25.8,30.07,SSE,157,0.0,1.0,84,0.00,,,0.01,Weather View 32 v70,2013-11-09 02:53:00,
2013-11-08 21:58:00,30.0,26.0,30.07,SSE,157,0.0,1.0,85,0.00,,,0.01,Weather View 32 v70,2013-11-09 02:58:00,
2013-11-08 22:03:00,30.0,26.0,30.07,SSE,157,0.0,1.0,85,0.00,,,0.01,Weather View 32 v70,2013-11-09 03:03:00,
2013-11-08 22:08:00,30.0,25.8,30.07,SSE,157,0.0,0.0,84,0.00,,,0.01,Weather View 32 v70,2013-11-09 03:08:00,
2013-11-08 22:13:00,31.0,26.4,30.07,SSE,157,0.0,0.0,83,0.00,,,0.01,Weather View 32 v70,2013-11-09 03:13:00,
2013-11-08 22:18:00,31.0,26.7,30.07,SSE,157,0.0,0.0,84,0.00,,,0.01,Weather View 32 v70,2013-11-09 03:18:00,
2013-11-08 22:23:00,31.0,27.6,30.07,SSE,157,0.0,0.0,87,0.00,,,0.01,Weather View 32 v70,2013-11-09 03:23:00,
2013-11-08 22:28:00,30.0,26.0,30.07,SSE,157,0.0,0.0,85,0.00,,,0.01,Weather View 32 v70,2013-11-09 03:28:00,
2013-11-08 22:33:00,30.0,25.5,30.07,SSE,157,0.0,0.0,83,0.00,,,0.01,Weather View 32 v70,2013-11-09 03:33:00,
2013-11-08 22:38:00,30.0,25.8,30.07,SSE,157,0.0,0.0,84,0.00,,,0.01,Weather View 32 v70,2013-11-09 03:38:00,
2013-11-08 22:43:00,30.0,25.8,30.07,SSE,157,0.0,0.0,84,0.00,,,0.01,Weather View 32 v70,2013-11-09 03:43:00,
2013-11-08 22:48:00,30.0,25.8,30.07,SSE,157,0.0,0.0,84,0.00,,,0.01,Weather View 32 v70,2013-11-09 03:48:00,
2013-11-08 22:53:00,29.0,24.8,30.07,SSE,157,0.0,0.0,84,0.00,,,0.01,Weather View 32 v70,2013-11-09 03:53:00,
2013-11-08 22:58:00,29.0,25.1,30.07,SSE,157,0.0,0.0,85,-0.01,,,0.00,Weather View 32 v70,2013-11-09 03:58:00,
2013-11-08 23:03:00,28.0,24.1,30.07,SSE,157,0.0,0.0,85,-0.01,,,0.00,Weather View 32 v70,2013-11-09 04:03:00,
2013-11-08 23:08:00,28.0,23.5,30.07,SSE,157,0.0,0.0,83,-0.01,,,0.00,Weather View 32 v70,2013-11-09 04:08:00,
2013-11-08 23:13:00,28.0,23.2,30.07,SSE,157,0.0,0.0,82,-0.01,,,0.00,Weather View 32 v70,2013-11-09 04:13:00,
2013-11-08 23:18:00,28.0,23.2,30.08,SSE,157,0.0,0.0,82,-0.01,,,0.00,Weather View 32 v70,2013-11-09 04:18:00,
2013-11-08 23:23:00,29.0,23.9,30.08,SSE,157,0.0,0.0,81,-0.01,,,0.00,Weather View 32 v70,2013-11-09 04:23:00,
2013-11-08 23:29:00,29.0,23.6,30.08,SSE,157,0.0,0.0,80,-0.01,,,0.00,Weather View 32 v70,2013-11-09 04:29:00,
2013-11-08 23:34:00,29.0,23.6,30.08,SSE,157,0.0,0.0,80,-0.01,,,0.00,Weather View 32 v70,2013-11-09 04:34:00,
2013-11-08 23:39:00,29.0,23.6,30.08,SSE,157,0.0,1.0,80,-0.01,,,0.00,Weather View 32 v70,2013-11-09 04:39:00,
2013-11-08 23:44:00,29.0,23.3,30.08,SSE,157,0.0,1.0,79,-0.01,,,0.00,Weather View 32 v70,2013-11-09 04:44:00,
2013-11-08 23:49:00,29.0,23.3,30.08,SSE,157,0.0,1.0,79,-0.01,,,0.00,Weather View 32 v70,2013-11-09 04:49:00,
2013-11-08 23:54:00,29.0,23.3,30.08,SSE,157,0.0,1.0,79,-0.01,,,0.00,Weather View 32 v70,2013-11-09 04:54:00,
2013-11-08 23:59:00,29.0,23.3,30.08,SSE,157,0.0,1.0,79,0.00,,,0.00,Weather View 32 v70,2013-11-09 04:59:00,